CAPE
0 0 0 0 0 0 0 0 0 0 0 0 0 0 0 0 0 0 0 0 0 0 0 0 0 0 0 0 0 0 0 0 0 0 0 0 0 0 0 0 0 0 0 0 0
0 0 0 0 0 0 0 0 0 0 0 0 0 0 0 0 0 0 0 0 0 0 0 0 0 0 0 0 0 0 0 0 0 0 0 0 0 0 0 0 0 0 0 0 0
0 0 0 0 0 0 0 0 0 0 0 0 0 0 0 0 0 0 0 0 0 0 0 0 0 0 0 0 0 0 0 0 0 0 0 0 0 0 0 0 0 0 0 0 0
0 0 0 0 0 0 0 0 0 0 0 0 0 0 0 0 0 0 0 0 0 0 0 0 0 0 0 0 0 0 0 0 0 0 0 0 0 0 0 0 0 0 0 0 0
0 0 0 0 0 0 0 0 0 0 0 0 0 0 0 0 0 0 0 0 0 0 0 0 0 0 0 0 0 0 0 0 0 0 0 0 0 0 0 0 0 0 0 0 0
0 0 0 0 0 0 0 0 0 0 0 0 0 0 0 0 0 0 0 0 0 0 0 0 0 0 0 0 0 0 0 0 0 0 0 0 0 0 0 0 0 0 0 0 0
0 0 0 0 0 0 0 0 0 0 0 0 0 0 0 0 0 0 0 0 0 0 0 0 0 0 0 0 0 0 0 0 0 0 0 0 0 0 0 0 0 0 0 0 0
0 0 0 0 0 0 0 0 0 0 0 0 0 0 0 0 0 0 0 0 0 0 0 0 0 0 0 0 0 0 0 0 0 0 0 0 0 0 0 0 0 0 0 0 0
0 0 0 0 0 0 0 0 0 0 0 0 0 0 0 0 0 0 0 0 0 0 0 0 0 0 0 0 0 0 0 0 0 0 0 0 0 0 0 0 0 0 0 0 0
0 0 0 0 0 0 0 0 0 0 0 0 0 0 0 0 0 0 0 0 0 0 0 0 0 0 0 0 0 0 0 0 0 0 0 0 0 0 0 0 0 0 0 0 0
0 0 0 0 0 0 0 0 0 0 0 0 0 0 0 0 0 0 0 0 0 0 0 0 0 0 0 0 0 0 0 0 0 0 0 0 0 0 0 0 0 0 0 0 0
0 0 0 0 0 0 0 0 0 0 0 0 0 0 0 0 0 0 0 0 0 0 0 0 0 0 0 0 0 0 0 0 0 0 0 0 0 0 0 0 0 0 0 0 0
0 0 0 0 0 0 0 0 0 0 0 0 0 0 0 0 0 0 0 0 0 0 0 0 0 0 0 0 0 0 0 0 0 0 0 0 0 0 0 0 0 0 0 0 0
0 0 0 0 0 0 0 0 0 0 0 0 0 0 0 0 0 0 0 0 0 0 0 0 0 0 0 0 0 0 0 0 0 0 0 0 0 0 0 0 0 0 0 0 0
0 0 0 0 0 0 0 0 0 0 0 0 0 0 0 0 0 0 0 0 0 0 0 0 0 0 0 0 0 0 0 0 0 0 0 0 0 0 0 0 0 0 0 0 0
0 0 0 0 0 0 0 0 0 0 0 0 0 0 0 0 0 0 0 0 0 0 0 0 0 0 0 0 0 0 0 0 0 0 0 0 0 0 0 0 0 0 0 0 0
0 0 0 0 0 0 0 0 0 0 0 0 0 0 0 0 0 0 0 0 0 0 0 0 0 0 0 0 0 0 0 0 0 0 0 0 0 0 0 0 0 0 0 0 0
0 0 0 0 0 0 0 0 0 0 0 0 0 0 0 0 0 0 0 0 0 0 0 0 0 0 0 0 0 0 0 0 0 0 0 0 0 0 0 0 0 0 0 0 0
0 0 0 0 0 0 0 0 0 0 0 0 0 0 0 0 0 0 0 0 0 0 0 0 0 0 0 0 0 0 0 0 0 0 0 0 0 0 0 0 0 0 0 0 0
0 0 0 0 0 0 0 0 0 0 0 0 0 0 0 0 0 0 0 0 0 0 0 0 0 0 0 0 0 0 0 0 0 0 0 0 0 0 0 0 0 0 0 0 0
0 0 0 0 0 0 0 0 0 0 0 0 0 0 0 0 0 0 0 0 0 0 0 0 0 0 0 0 0 0 0 0 0 0 0 0 0 0 0 0 0 0 0 0 0
0 0 0 0 0 0 0 0 0 0 0 0 0 0 0 0 0 0 0 0 0 0 0 0 0 0 0 0 0 0 0 0 0 0 0 0 0 0 0 0 0 0 0 0 0
0 0 0 0 0 0 0 0 0 0 0 0 0 0 0 0 0 0 0 0 0 0 0 0 0 0 0 0 0 0 0 0 0 0 0 0 0 0 0 0 0 0 0 0 0
0 0 0 0 0 0 0 0 0 0 0 0 0 0 0 0 0 0 0 0 0 0 0 0 0 0 0 0 0 0 0 0 0 0 0 0 0 0 0 0 0 0 0 0 0
0 0 0 0 0 0 0 0 0 0 0 0 0 0 0 0 0 0 0 0 0 0 0 0 0 0 0 0 0 0 0 0 0 0 6 0 0 0 0 0 0 0 0 0 0
0 0 0 0 0 0 0 0 0 0 0 0 0 0 0 0 0 0 0 0 0 0 0 0 0 0 0 0 0 0 0 0 0 0 3 9 0 0 0 0 0 0 0 0 0
0 0 0 0 0 0 0 0 0 0 0 0 0 0 0 0 0 0 0 0 0 0 0 0 0 0 0 0 0 0 0 0 0 0 0 0 2 0 0 0 0 0 0 0 0
CIN
-0 0 0 0 0 0 0 0 0 0 0 0 0 0 0 0 0 0 0 0 0 0 0 0 0 0 0 0 0 0 0 0 0 0 0 0 0 0 0 0 0 0 0 0 0
0 0 0 0 0 0 0 0 0 0 0 0 0 0 0 0 0 0 0 0 0 0 0 0 0 0 0 0 0 0 0 0 0 0 0 0 0 0 0 0 0 0 0 0 0
0 0 0 0 0 0 0 0 0 0 0 0 0 0 0 0 0 0 0 0 0 0 0 0 0 0 0 0 0 0 0 0 0 0 0 0 0 0 0 0 0 0 0 0 0
0 0 0 0 0 0 0 0 0 0 0 0 0 0 0 0 0 0 0 0 0 0 0 0 0 0 0 0 0 0 0 0 0 0 0 0 0 0 0 0 0 0 0 0 0
0 0 0 0 0 0 0 0 0 0 0 0 0 0 0 0 0 0 0 0 0 0 0 0 0 0 0 0 0 0 0 0 0 0 0 0 0 0 0 0 0 0 0 0 0
0 0 0 0 0 0 0 0 0 0 0 0 0 0 0 0 0 0 0 0 0 0 0 0 0 0 0 0 0 0 0 0 0 0 0 0 0 0 0 0 0 0 0 0 0
0 0 0 0 0 0 0 0 0 0 0 0 0 0 0 0 0 0 0 0 0 0 0 0 0 0 0 0 0 0 0 0 0 0 0 0 0 0 0 0 0 0 0 0 0
0 0 0 0 0 0 0 0 0 0 0 0 0 0 0 0 0 0 0 0 0 0 0 0 0 0 0 0 0 0 0 0 0 0 0 0 0 0 0 0 0 0 0 0 0
0 0 0 0 0 0 0 0 0 0 0 0 0 0 0 0 0 0 0 0 0 0 0 0 0 0 0 0 0 0 0 0 0 0 0 0 0 0 0 0 0 0 0 0 0
0 0 0 0 0 0 0 0 0 0 0 0 0 0 0 0 0 0 0 0 0 0 0 0 0 0 0 0 0 0 0 0 0 0 0 0 0 0 0 0 0 0 0 0 0
0 0 0 0 0 0 0 0 0 0 0 0 0 0 0 0 0 0 0 0 0 0 0 0 0 0 0 0 0 0 0 0 0 0 0 0 0 0 0 0 0 0 0 0 0
0 0 0 0 0 0 0 0 0 0 0 0 0 0 0 0 0 0 0 0 0 0 0 0 0 0 0 0 0 0 0 0 0 0 0 0 0 0 0 0 0 0 0 0 0
0 0 0 0 0 0 0 0 0 0 0 0 0 0 0 0 0 0 0 0 0 0 0 0 0 0 0 0 0 0 0 0 0 0 0 0 0 0 0 0 0 0 0 0 0
0 0 0 0 0 0 0 0 0 0 0 0 0 0 0 0 0 0 0 0 0 0 0 0 0 0 0 0 0 0 0 0 0 0 0 0 0 0 0 0 0 0 0 0 0
0 0 0 0 0 0 0 0 0 0 0 0 0 0 0 0 0 0 0 0 0 0 0 0 0 0 0 0 0 0 0 0 0 0 0 0 0 0 0 0 0 0 0 0 0
0 0 0 0 0 0 0 0 0 0 0 0 0 0 0 0 0 0 0 0 0 0 0 0 0 0 0 0 0 0 0 0 0 0 0 0 0 0 0 0 0 0 0 0 0
0 0 0 0 0 0 0 0 0 0 0 0 0 0 0 0 0 0 0 0 0 0 0 0 0 0 0 0 0 0 0 0 0 0 0 0 0 0 0 0 0 0 0 0 0
0 0 0 0 0 0 0 0 0 0 0 0 0 0 0 0 0 0 0 0 0 0 0 0 0 0 0 0 0 0 0 0 0 0 0 0 0 0 0 0 0 0 0 0 0
0 0 0 0 0 0 0 0 0 0 0 0 0 0 0 0 0 0 0 0 0 0 0 0 0 0 0 0 0 0 0 0 0 0 0 0 0 0 0 0 0 0 0 0 0
0 0 0 0 0 0 0 0 0 0 0 0 0 0 0 0 0 0 0 0 0 0 0 0 0 0 0 0 0 0 0 0 0 0 0 0 0 0 0 0 0 0 0 0 0
0 0 0 0 0 0 0 0 0 0 0 0 0 0 0 0 0 0 0 0 0 0 0 0 0 0 0 0 0 0 0 0 0 0 0 0 0 0 0 0 0 0 0 0 0
0 0 0 0 0 0 0 0 0 0 0 0 0 0 0 0 0 0 0 0 0 0 0 0 0 0 0 0 0 0 0 0 0 0 0 0 0 0 0 0 0 0 0 0 0
0 0 0 0 0 0 0 0 0 0 0 0 0 0 0 0 0 0 0 0 0 0 0 0 0 0 0 0 0 0 0 0 0 0 0 0 0 0 0 0 0 0 0 0 0
0 0 0 0 0 0 0 0 0 0 0 0 0 0 0 0 0 0 0 0 0 0 0 0 0 0 0 0 0 0 0 0 0 0 0 0 0 0 0 0 0 0 0 0 0
0 0 0 0 0 0 0 0 0 0 0 0 0 0 0 0 0 0 0 0 0 0 0 0 0 0 0 0 0 0 0 0 0 0 -3 0 0 0 0 0 0 0 0 0 0
0 0 0 0 0 0 0 0 0 0 0 0 0 0 0 0 0 0 0 0 0 0 0 0 0 0 0 0 0 0 0 0 0 0 -1 -1 0 0 0 0 -1 0 0 0 0
0 0 0 0 0 0 0 0 0 0 0 0 0 0 0 0 0 0 0 0 0 0 0 0 0 0 0 0 0 0 0 0 0 0 0 0 0 -0 -6 0 0 0 0 0 0
Wind_Speed
17 15 14 13 14 15 16 17 17 18 19 19 20 20 20 20 20 19 24 23 19 20 21 22 20 21 21 22 21 19 24 27 26 22 21 22 21 21 19 18 16 15 18 20 18
14 12 13 14 15 15 15 16 18 18 18 19 20 20 19 19 19 21 23 20 19 18 19 19 19 22 22 22 23 23 26 25 22 17 23 24 23 22 23 24 20 18 20 22 20
13 12 11 11 12 13 13 15 17 18 19 19 19 19 18 17 17 18 19 18 16 17 18 19 20 20 22 22 22 23 28 24 25 25 23 24 24 22 23 26 26 29 28 25 21
13 12 12 11 10 11 13 14 15 17 19 19 18 16 16 17 19 17 16 15 15 17 20 19 20 20 22 22 21 26 27 29 31 28 25 25 24 26 25 27 28 29 27 27 24
17 11 10 10 11 11 11 13 13 16 19 20 18 15 14 14 15 14 13 14 16 17 18 17 17 19 22 22 24 23 25 25 25 26 27 23 24 27 28 28 26 27 30 27 23
19 16 11 9 9 8 11 12 14 15 18 17 15 14 13 9 15 15 14 15 18 17 15 15 18 19 20 22 22 24 25 26 26 27 27 28 27 23 30 25 27 27 27 24 21
20 19 15 11 8 7 9 12 15 19 18 16 15 15 15 15 15 16 17 18 17 17 17 17 18 21 19 23 22 24 27 26 22 25 26 21 24 23 23 27 30 29 26 24 22
20 19 17 13 10 8 9 13 18 20 19 15 13 13 14 16 17 17 17 19 18 18 19 18 18 18 19 21 22 23 22 26 21 23 22 19 26 24 26 29 33 32 31 31 32
21 18 17 14 11 9 9 13 19 20 18 12 13 13 13 15 16 16 16 17 18 16 17 19 17 17 16 17 19 20 21 22 23 22 25 24 28 27 31 33 37 35 34 33 34
22 20 17 15 14 12 12 18 17 16 9 14 15 10 14 14 15 13 15 16 16 17 17 15 15 17 17 17 19 20 21 22 25 27 29 28 30 34 37 38 38 37 35 34 35
23 20 18 16 15 15 16 15 16 15 14 15 14 13 13 14 13 14 17 16 14 13 15 16 18 20 19 16 15 19 21 25 26 25 31 32 35 37 31 29 33 32 32 32 28
23 19 16 15 16 16 18 16 16 16 15 16 15 15 15 13 14 15 18 16 14 14 17 18 18 19 16 17 17 20 23 26 25 27 29 31 31 22 25 28 29 27 23 18 17
22 19 16 15 14 17 16 15 16 17 15 16 13 15 15 14 15 16 18 16 14 16 19 17 19 20 15 18 21 22 24 26 27 29 25 29 22 27 23 24 24 23 21 16 15
21 18 16 16 17 17 16 19 18 14 16 14 14 15 14 14 16 16 17 16 16 18 22 19 20 15 18 20 20 25 20 25 28 29 29 25 28 25 22 21 22 22 20 18 17
21 17 15 18 16 17 18 21 15 14 16 13 14 15 16 15 16 17 17 18 19 19 20 21 20 22 26 21 20 23 24 28 29 30 28 24 26 24 20 20 20 19 18 17 17
20 15 11 15 16 13 18 16 14 16 17 15 14 16 16 16 16 18 19 18 19 20 20 23 20 21 20 20 20 21 26 29 24 24 30 23 25 29 21 19 18 15 15 16 16
19 14 15 15 16 15 17 16 17 18 16 18 18 19 19 18 17 18 19 20 21 24 25 24 20 17 20 22 22 23 28 33 30 28 29 18 29 26 20 20 15 12 13 15 16
19 16 18 14 13 15 17 16 19 18 18 19 22 19 18 20 17 19 20 21 20 20 22 23 24 20 24 22 24 26 24 27 34 32 30 26 32 28 17 15 14 14 15 17 18
20 21 21 19 18 17 17 19 18 18 19 22 19 20 20 19 18 20 23 21 19 19 22 24 21 22 24 24 23 23 25 21 28 30 34 28 28 27 17 20 16 16 19 21 25
20 21 24 23 18 18 18 17 16 17 18 19 20 20 21 22 21 23 23 21 19 19 20 21 27 22 22 24 24 21 21 27 26 35 37 33 32 27 18 19 19 22 23 30 30
20 19 25 22 18 18 18 16 14 16 17 18 18 19 19 21 21 23 21 20 20 21 23 22 22 24 27 25 27 26 28 25 27 27 37 43 36 23 22 19 23 27 31 39 33
21 20 26 19 18 17 17 17 16 14 17 18 18 18 19 22 22 21 20 20 22 24 28 25 26 32 33 33 29 25 25 22 29 36 33 37 44 28 26 24 28 34 40 35 30
22 19 23 20 19 19 18 17 18 19 20 19 19 19 20 21 21 19 21 20 24 25 29 28 29 40 39 28 21 23 25 30 35 37 42 44 43 26 31 38 42 48 40 36 36
22 20 21 21 19 18 20 18 18 21 20 20 20 19 22 23 22 23 24 22 29 29 29 25 30 33 42 39 40 47 45 41 39 45 48 47 54 48 46 47 47 42 36 34 34
23 20 19 20 20 22 19 18 18 18 20 23 20 21 23 25 28 25 26 33 32 30 25 29 35 36 39 42 44 48 49 46 44 45 45 53 50 47 44 44 38 32 33 36 39
22 22 22 20 19 20 21 21 21 20 20 20 23 26 24 26 25 31 30 31 31 31 29 30 37 39 44 37 38 46 43 43 43 44 46 48 51 50 39 32 32 36 39 44 44
23 21 21 22 22 19 20 21 21 21 19 21 23 23 24 24 24 25 26 28 29 33 34 30 31 37 43 39 45 45 34 33 37 36 40 46 45 38 37 39 41 42 43 45 43
Wind_Direction
309 296 284 271 266 261 255 244 246 257 257 249 241 245 251 251 249 254 245 252 266 273 271 272 278 280 282 278 281 287 276 273 277 282 288 297 301 307 312 319 332 338 333 322 336
302 290 282 276 269 256 246 237 237 233 238 241 236 238 245 248 248 250 245 256 265 273 273 275 277 280 279 280 279 276 275 277 281 296 294 298 302 305 303 303 309 317 328 331 330
300 293 285 275 266 261 246 241 226 208 218 222 222 217 224 253 252 251 246 255 266 274 277 279 281 282 277 282 280 279 273 278 280 288 301 299 301 302 304 298 301 299 304 315 321
300 294 290 279 263 251 250 240 226 203 201 211 222 227 233 232 235 250 247 258 273 281 279 282 282 280 279 280 285 279 279 278 277 288 295 298 300 297 298 299 302 301 305 307 309
307 293 287 278 270 254 234 232 232 203 195 195 206 239 249 243 235 243 259 271 276 282 282 279 284 281 278 282 284 284 286 289 289 290 289 296 300 298 299 303 305 306 305 307 308
313 301 289 278 264 240 230 216 210 214 194 204 226 243 258 267 236 245 270 276 275 279 286 292 285 290 286 284 285 289 289 289 292 289 292 293 298 303 303 307 305 309 310 311 311
313 307 297 283 262 224 203 207 194 173 187 204 222 224 222 235 258 263 266 267 285 288 288 299 305 289 295 286 295 290 287 294 303 301 300 305 301 299 305 310 306 308 311 311 308
312 306 300 291 272 239 199 177 165 157 171 214 259 266 234 241 246 272 280 272 286 280 284 298 310 302 292 299 296 292 294 289 301 315 312 308 294 305 314 312 305 305 304 304 302
310 303 296 291 277 258 231 188 143 140 148 344 274 286 281 258 267 276 285 286 283 290 291 295 302 299 299 299 295 302 294 292 296 314 310 310 302 307 310 307 301 302 304 304 304
309 302 291 284 283 275 268 96 59 43 235 225 252 322 272 307 292 301 299 294 297 290 297 309 306 301 306 301 290 295 300 300 297 305 309 305 303 304 302 302 301 300 302 303 304
310 300 289 279 279 284 315 21 355 18 13 360 282 316 355 298 299 299 298 308 312 314 305 312 300 293 299 311 310 307 306 303 306 312 307 304 305 307 313 315 311 306 301 303 310
308 296 278 269 267 290 9 3 12 357 330 314 309 302 298 347 333 322 321 326 317 311 313 307 303 309 313 314 313 311 307 305 311 315 312 311 312 324 330 332 331 327 323 322 328
308 295 279 268 260 30 20 42 8 337 343 317 334 337 339 346 338 336 337 337 326 317 315 309 309 313 318 314 311 312 310 311 310 315 316 316 316 322 332 339 349 354 358 359 355
309 295 279 273 36 19 31 292 304 28 345 351 354 342 350 345 342 339 343 345 331 321 316 313 316 321 318 316 318 310 319 319 315 313 305 321 302 316 327 336 348 355 3 7 11
308 293 280 13 52 31 340 292 353 3 340 11 360 343 343 347 342 337 340 337 331 325 326 313 312 311 308 315 320 314 320 319 315 309 308 309 305 311 321 322 332 348 360 4 10
306 286 244 75 63 66 268 16 32 352 337 349 356 343 342 336 337 336 337 339 334 326 325 323 318 318 319 323 326 326 319 320 320 314 300 303 304 305 309 320 324 336 347 354 357
304 282 67 62 42 54 28 43 2 348 350 339 342 341 336 338 335 333 336 334 330 321 319 322 326 333 334 320 324 325 319 309 306 305 302 308 306 304 310 315 320 331 338 344 345
296 329 49 69 61 55 44 25 352 354 347 343 336 339 336 335 342 338 334 331 336 336 328 322 315 323 329 328 319 320 319 310 303 303 306 312 302 311 316 325 326 329 333 334 334
307 15 27 35 34 36 33 0 1 3 356 342 341 338 335 339 340 337 336 335 340 338 328 324 322 329 325 322 323 322 316 323 311 310 304 306 307 311 310 310 315 321 323 324 323
5 4 7 338 21 25 25 11 17 15 9 2 343 344 333 334 335 336 334 341 343 340 339 332 319 329 333 328 324 319 325 314 316 307 303 307 304 304 299 304 306 311 315 317 315
2 2 360 352 15 19 15 18 18 13 10 7 356 345 344 340 341 337 335 339 339 336 335 333 326 324 324 329 322 319 312 315 313 308 305 303 303 315 301 293 303 308 308 311 310
0 355 349 5 7 17 12 11 2 9 2 355 353 350 346 340 338 339 339 339 344 338 325 329 321 314 314 317 316 314 315 317 312 309 306 304 297 308 306 304 306 308 309 310 309
358 6 3 12 0 5 5 7 2 347 336 343 348 352 349 345 341 345 340 350 346 341 332 329 319 312 312 323 334 323 316 314 311 307 298 298 298 317 311 305 304 305 309 307 305
5 1 5 12 20 10 358 0 357 338 338 339 340 345 338 337 339 332 331 337 331 333 332 330 317 310 305 307 309 303 303 306 304 299 300 291 298 297 299 299 302 305 306 307 306
357 10 12 360 355 350 2 1 354 351 341 329 334 339 335 331 329 331 330 324 327 330 335 327 314 313 310 310 308 305 304 305 301 298 295 297 297 299 302 301 304 305 308 307 306
4 0 359 3 359 353 347 351 351 350 347 341 331 326 331 328 330 324 329 330 327 327 329 326 316 316 312 315 314 309 310 308 305 304 302 301 296 304 304 306 305 306 306 305 306
2 6 3 354 348 350 346 345 345 345 348 345 339 337 336 335 335 332 329 326 322 322 324 326 325 321 315 321 319 314 319 318 315 314 316 309 315 317 310 307 305 304 307 307 308